When you browse on this site, cookies collect data to enhance your experience and personalize the content and advertising you see.
Visit our Privacy Policy to learn more. By continuing to use the site, you agree to this use of cookies and data.
  • In Hungary
  • List of Countries
  • For 7 days
  • Water Temperature
  • Weather Map
  • News
  • Weather Widgets
  • user-avatar
    Login

    Hourly Weather Kalgoorlie

    Today, 27 May, Wednesday

    Time Temperature Precipitation Wind Pressure Humidity
    00:00 +8°C° 0 mm 2 mps 734 mmHg 67%
    01:00 +8°C° 0 mm 2 mps 733 mmHg 68%
    02:00 +7°C° 0 mm 2 mps 733 mmHg 69%
    03:00 +7°C° 0 mm 2 mps 733 mmHg 71%
    04:00 +7°C° 0 mm 2 mps 733 mmHg 73%
    05:00 +7°C° 0 mm 1 mps 733 mmHg 75%
    06:00 +8°C° 0 mm 1 mps 733 mmHg 71%
    07:00 +9°C° 0 mm 1 mps 734 mmHg 67%
    08:00 +10°C° 0 mm 1 mps 734 mmHg 62%
    09:00 +12°C° 0 mm 2 mps 734 mmHg 56%
    10:00 +12°C° 0 mm 3 mps 734 mmHg 51%
    11:00 +14°C° 0 mm 4 mps 734 mmHg 45%
    12:00 +14°C° 0 mm 4 mps 733 mmHg 42%
    13:00 +15°C° 0 mm 4 mps 732 mmHg 39%
    14:00 +17°C° 0 mm 4 mps 732 mmHg 38%
    15:00 +16°C° 0 mm 3 mps 732 mmHg 39%
    16:00 +14°C° 0 mm 3 mps 732 mmHg 41%
    17:00 +14°C° 0 mm 3 mps 732 mmHg 43%
    18:00 +14°C° 0 mm 2 mps 732 mmHg 46%
    19:00 +13°C° 0 mm 2 mps 732 mmHg 48%
    20:00 +12°C° 0 mm 2 mps 733 mmHg 51%
    21:00 +12°C° 0 mm 2 mps 733 mmHg 55%
    22:00 +10°C° 0 mm 2 mps 733 mmHg 59%
    23:00 +10°C° 0 mm 2 mps 733 mmHg 63%

    Tomorrow, 28 May, Thursday

    Time Temperature Precipitation Wind Pressure Humidity
    00:00 +10°C° 0 mm 2 mps 733 mmHg 65%
    01:00 +9°C° 0 mm 2 mps 733 mmHg 67%
    02:00 +9°C° 0 mm 2 mps 732 mmHg 69%
    03:00 +9°C° 0 mm 2 mps 732 mmHg 69%
    04:00 +9°C° 0 mm 3 mps 733 mmHg 69%
    05:00 +9°C° 0 mm 3 mps 733 mmHg 69%
    06:00 +10°C° 0 mm 3 mps 733 mmHg 67%
    07:00 +10°C° 0 mm 3 mps 733 mmHg 64%
    08:00 +11°C° 0 mm 4 mps 733 mmHg 61%
    09:00 +13°C° 0 mm 4 mps 733 mmHg 54%
    10:00 +15°C° 0 mm 5 mps 733 mmHg 47%
    11:00 +17°C° 0 mm 5 mps 733 mmHg 39%
    12:00 +17°C° 0 mm 5 mps 732 mmHg 36%
    13:00 +19°C° 0 mm 5 mps 732 mmHg 33%
    14:00 +20°C° 0 mm 6 mps 731 mmHg 30%
    15:00 +19°C° 0 mm 5 mps 731 mmHg 33%
    16:00 +18°C° 0 mm 4 mps 731 mmHg 35%
    17:00 +17°C° 0 mm 3 mps 731 mmHg 37%
    18:00 +16°C° 0 mm 3 mps 731 mmHg 38%
    19:00 +14°C° 0 mm 3 mps 731 mmHg 40%
    20:00 +13°C° 0 mm 3 mps 731 mmHg 42%
    21:00 +13°C° 0 mm 3 mps 731 mmHg 43%
    22:00 +13°C° 0 mm 3 mps 731 mmHg 44%
    23:00 +12°C° 0 mm 3 mps 731 mmHg 45%

    Day after tomorrow, 29 May, Friday

    Time Temperature Precipitation Wind Pressure Humidity
    00:00 +12°C° 0 mm 3 mps 730 mmHg 47%
    01:00 +11°C° 0 mm 3 mps 730 mmHg 48%
    02:00 +11°C° 0 mm 4 mps 730 mmHg 50%
    03:00 +11°C° 0 mm 4 mps 730 mmHg 50%
    04:00 +10°C° 0 mm 4 mps 730 mmHg 50%
    05:00 +10°C° 0 mm 4 mps 730 mmHg 50%
    06:00 +10°C° 0 mm 4 mps 730 mmHg 48%
    07:00 +11°C° 0 mm 4 mps 730 mmHg 46%
    08:00 +12°C° 0 mm 4 mps 730 mmHg 44%
    09:00 +14°C° 0 mm 6 mps 729 mmHg 38%
    10:00 +16°C° 0 mm 7 mps 729 mmHg 31%
    11:00 +19°C° 0 mm 9 mps 729 mmHg 24%
    12:00 +19°C° 0 mm 9 mps 728 mmHg 23%
    13:00 +21°C° 0 mm 10 mps 727 mmHg 22%
    14:00 +21°C° 0 mm 10 mps 727 mmHg 21%
    15:00 +19°C° 0 mm 9 mps 727 mmHg 23%
    16:00 +18°C° 0 mm 8 mps 726 mmHg 26%
    17:00 +17°C° 0 mm 6 mps 726 mmHg 28%
    18:00 +17°C° 0 mm 6 mps 727 mmHg 32%
    19:00 +16°C° 0 mm 6 mps 727 mmHg 37%
    20:00 +15°C° 0 mm 6 mps 727 mmHg 41%
    21:00 +15°C° 0 mm 7 mps 728 mmHg 51%
    22:00 +15°C° 0 mm 7 mps 728 mmHg 61%
    23:00 +14°C° 0 mm 7 mps 728 mmHg 71%

    30 May, Saturday

    Time Temperature Precipitation Wind Pressure Humidity
    00:00 +13°C° 0 mm 6 mps 728 mmHg 77%
    01:00 +13°C° 0 mm 6 mps 729 mmHg 82%
    02:00 +12°C° 0 mm 5 mps 729 mmHg 88%
    03:00 +10°C° 0 mm 5 mps 729 mmHg 84%
    04:00 +10°C° 0 mm 5 mps 730 mmHg 80%
    05:00 +9°C° 0 mm 5 mps 730 mmHg 76%
    06:00 +9°C° 0 mm 6 mps 731 mmHg 72%
    07:00 +9°C° 0 mm 6 mps 732 mmHg 69%
    08:00 +9°C° 0 mm 6 mps 732 mmHg 65%
    09:00 +10°C° 0 mm 6 mps 733 mmHg 58%
    10:00 +11°C° 0 mm 6 mps 733 mmHg 50%
    11:00 +13°C° 0 mm 6 mps 733 mmHg 42%
    12:00 +14°C° 0 mm 6 mps 733 mmHg 40%
    13:00 +14°C° 0 mm 6 mps 732 mmHg 37%
    14:00 +15°C° 0 mm 6 mps 732 mmHg 35%
    15:00 +14°C° 0 mm 5 mps 732 mmHg 37%
    16:00 +14°C° 0 mm 4 mps 733 mmHg 39%
    17:00 +13°C° 0 mm 3 mps 733 mmHg 42%
    18:00 +12°C° 0 mm 3 mps 733 mmHg 45%
    19:00 +11°C° 0 mm 3 mps 734 mmHg 48%
    20:00 +10°C° 0 mm 3 mps 734 mmHg 51%
    21:00 +10°C° 0 mm 3 mps 735 mmHg 55%
    22:00 +9°C° 0 mm 3 mps 735 mmHg 59%
    23:00 +7°C° 0 mm 4 mps 735 mmHg 64%

    31 May, Sunday

    Time Temperature Precipitation Wind Pressure Humidity
    00:00 +8°C° 0 mm 3 mps 735 mmHg 65%
    01:00 +8°C° 0 mm 3 mps 735 mmHg 67%
    02:00 +8°C° 0 mm 3 mps 735 mmHg 69%
    03:00 +7°C° 0 mm 3 mps 735 mmHg 69%
    04:00 +7°C° 0 mm 3 mps 735 mmHg 70%
    05:00 +7°C° 0 mm 3 mps 735 mmHg 71%
    06:00 +8°C° 0 mm 3 mps 735 mmHg 68%
    07:00 +7°C° 0 mm 4 mps 736 mmHg 65%
    08:00 +8°C° 0 mm 4 mps 736 mmHg 62%
    09:00 +11°C° 0 mm 4 mps 736 mmHg 57%
    10:00 +13°C° 0 mm 5 mps 736 mmHg 51%
    11:00 +15°C° 0 mm 5 mps 736 mmHg 45%
    12:00 +16°C° 0 mm 5 mps 736 mmHg 44%
    13:00 +16°C° 0 mm 5 mps 735 mmHg 42%
    14:00 +17°C° 0 mm 5 mps 735 mmHg 40%
    15:00 +17°C° 0 mm 4 mps 735 mmHg 44%
    16:00 +15°C° 0 mm 4 mps 735 mmHg 47%
    17:00 +16°C° 0 mm 3 mps 735 mmHg 51%
    18:00 +14°C° 0 mm 3 mps 735 mmHg 54%
    19:00 +13°C° 0 mm 3 mps 736 mmHg 57%
    20:00 +12°C° 0 mm 3 mps 736 mmHg 60%
    21:00 +12°C° 0 mm 3 mps 736 mmHg 64%
    22:00 +11°C° 0 mm 3 mps 736 mmHg 67%
    23:00 +12°C° 0 mm 2 mps 736 mmHg 70%

    1 June, Monday

    Time Temperature Precipitation Wind Pressure Humidity
    00:00 +12°C° 0 mm 2 mps 736 mmHg 72%
    01:00 +10°C° 0 mm 2 mps 736 mmHg 74%
    02:00 +11°C° 0 mm 1 mps 736 mmHg 76%
    03:00 +9°C° 0 mm 2 mps 737 mmHg 76%
    04:00 +9°C° 0 mm 2 mps 737 mmHg 77%
    05:00 +9°C° 0 mm 2 mps 737 mmHg 78%
    06:00 +10°C° 0 mm 2 mps 737 mmHg 76%
    07:00 +10°C° 0 mm 2 mps 738 mmHg 75%
    08:00 +12°C° 0 mm 2 mps 738 mmHg 73%
    09:00 +13°C° 0 mm 2 mps 738 mmHg 66%
    10:00 +15°C° 0 mm 2 mps 738 mmHg 60%
    11:00 +17°C° 0 mm 2 mps 738 mmHg 53%
    12:00 +18°C° 0 mm 2 mps 738 mmHg 50%
    13:00 +18°C° 0 mm 2 mps 737 mmHg 47%
    14:00 +19°C° 0 mm 3 mps 737 mmHg 43%
    15:00 +18°C° 0 mm 2 mps 737 mmHg 45%
    16:00 +17°C° 0 mm 2 mps 737 mmHg 47%
    17:00 +17°C° 0 mm 2 mps 737 mmHg 50%
    18:00 +16°C° 0 mm 2 mps 737 mmHg 53%
    19:00 +16°C° 0 mm 3 mps 737 mmHg 55%
    20:00 +14°C° 0 mm 3 mps 738 mmHg 58%
    21:00 +13°C° 0 mm 3 mps 738 mmHg 61%
    22:00 +13°C° 0 mm 3 mps 738 mmHg 63%
    23:00 +12°C° 0 mm 3 mps 737 mmHg 66%
    Show more